This is the latest recevied weather packets stored in our database for station/object AA4XD. If no packets are shown the sender has not sent any weather packets the latest 10 day(s).
| Time | Temp. | Humidity | Pressure | Rain* | Wind** | Luminosity | Snow |
|---|---|---|---|---|---|---|---|
| 1777920801 | 28.89° C | 33% | 1014.8 hPa | 0 mm | - | 942 W/m² | - |
| 1777920497 | 28.89° C | 34% | 1015 hPa | 0 mm | - | 943 W/m² | - |
| 1777920194 | 28.89° C | 31% | 1014.9 hPa | 0 mm | - | 955 W/m² | - |
| 1777919889 | 28.89° C | 34% | 1015 hPa | 0 mm | - | 958 W/m² | - |
| 1777919587 | 28.33° C | 32% | 1014.9 hPa | 0 mm | - | 966 W/m² | - |
| 1777919284 | 28.89° C | 33% | 1015.1 hPa | 0 mm | - | 968 W/m² | - |
| 1777918981 | 28.33° C | 34% | 1015.3 hPa | 0 mm | - | 984 W/m² | - |
| 1777918679 | 28.33° C | 32% | 1015 hPa | 0 mm | - | 991 W/m² | - |
| 1777918376 | 27.78° C | 33% | 1015.2 hPa | 0 mm | - | 998 W/m² | - |
| 1777918075 | 28.33° C | 35% | 1015.5 hPa | 0 mm | - | 1000 W/m² | - |
| 1777917773 | 28.33° C | 33% | 1015.6 hPa | 0 mm | - | 1009 W/m² | - |
| 1777917471 | 28.33° C | 32% | 1015.5 hPa | 0 mm | - | 1016 W/m² | - |
| 1777917167 | 28.33° C | 32% | 1015.6 hPa | 0 mm | - | 1021 W/m² | - |
| 1777916865 | 27.78° C | 30% | 1015.8 hPa | 0 mm | - | 1021 W/m² | - |
| 1777916563 | 27.78° C | 33% | 1015.6 hPa | 0 mm | - | 1021 W/m² | - |
| 1777916259 | 27.78° C | 32% | 1015.9 hPa | 0 mm | - | 1021 W/m² | - |
| 1777915956 | 27.78° C | 33% | 1015.9 hPa | 0 mm | - | 1022 W/m² | - |
| 1777915653 | 28.33° C | 34% | 1015.9 hPa | 0 mm | - | 1022 W/m² | - |
| 1777915349 | 27.78° C | 32% | 1015.9 hPa | 0 mm | - | 1021 W/m² | - |
| 1777915046 | 27.22° C | 32% | 1016 hPa | 0 mm | - | 1020 W/m² | - |
| 1777914743 | 27.22° C | 31% | 1016.2 hPa | 0 mm | - | 1014 W/m² | - |
| 1777914440 | 26.67° C | 33% | 1016.2 hPa | 0 mm | - | 1006 W/m² | - |
| 1777914137 | 27.22° C | 35% | 1016.1 hPa | 0 mm | - | 1002 W/m² | - |
| 1777913833 | 27.22° C | 35% | 1016 hPa | 0 mm | - | 999 W/m² | - |
| 1777913529 | 26.67° C | 34% | 1016.4 hPa | 0 mm | - | 990 W/m² | - |
* Rain latest hour (hover to see other rain measurements)
** Current wind speed in m/s (hover to see current wind gust speed)